Time,TemperatureF,DewpointF,PressureIn,WindDirection,WindDirectionDegrees,WindSpeedMPH,WindSpeedGustMPH,Humidity,HourlyPrecipIn,Conditions,Clouds,dailyrainin,SoftwareType,DateUTC
2013-05-29 00:21:00,49.0,34.0,29.75,North,0,0.0,-999.0,57,0.00,,,-99.99,,2013-05-29 07:21:00,
2013-05-29 00:34:00,49.0,34.0,29.75,North,0,0.0,-999.0,57,0.00,,,-99.99,,2013-05-29 07:34:00,
2013-05-29 00:42:00,49.0,34.0,29.75,North,0,0.0,-999.0,57,0.00,,,-99.99,,2013-05-29 07:42:00,
2013-05-29 00:52:00,49.0,34.0,29.75,North,0,0.0,-999.0,57,0.00,,,-99.99,,2013-05-29 07:52:00,
2013-05-29 01:21:00,48.0,36.0,29.75,North,0,0.0,-999.0,63,0.00,,,-99.99,,2013-05-29 08:21:00,
2013-05-29 01:32:00,48.0,36.0,29.75,North,0,0.0,-999.0,63,0.00,,,-99.99,,2013-05-29 08:32:00,
2013-05-29 01:41:00,48.0,36.0,29.75,North,0,0.0,-999.0,63,0.00,,,-99.99,,2013-05-29 08:41:00,
2013-05-29 01:51:00,48.0,36.0,29.75,North,0,0.0,-999.0,63,0.00,,,-99.99,,2013-05-29 08:51:00,
2013-05-29 02:21:00,47.0,37.0,29.74,North,0,0.0,-999.0,67,0.00,,,-99.99,,2013-05-29 09:21:00,
2013-05-29 02:33:00,47.0,37.0,29.74,North,0,0.0,-999.0,67,0.00,,,-99.99,,2013-05-29 09:33:00,
2013-05-29 02:42:00,47.0,37.0,29.74,North,0,0.0,-999.0,67,0.00,,,-99.99,,2013-05-29 09:42:00,
2013-05-29 02:52:00,47.0,37.0,29.74,North,0,0.0,-999.0,67,0.00,,,-99.99,,2013-05-29 09:52:00,
2013-05-29 03:22:00,46.0,37.0,29.75,North,0,0.0,-999.0,70,0.00,,,-99.99,,2013-05-29 10:22:00,
2013-05-29 03:32:00,46.0,37.0,29.75,North,0,0.0,-999.0,70,0.00,,,-99.99,,2013-05-29 10:32:00,
2013-05-29 03:42:00,46.0,37.0,29.75,North,0,0.0,-999.0,70,0.00,,,-99.99,,2013-05-29 10:42:00,
2013-05-29 03:52:00,46.0,37.0,29.75,North,0,0.0,-999.0,70,0.00,,,-99.99,,2013-05-29 10:52:00,
2013-05-29 04:22:00,46.0,37.0,29.74,North,0,0.0,-999.0,72,0.00,,,-99.99,,2013-05-29 11:22:00,
2013-05-29 04:32:00,46.0,37.0,29.74,North,0,0.0,-999.0,72,0.00,,,-99.99,,2013-05-29 11:32:00,
2013-05-29 04:42:00,46.0,37.0,29.74,North,0,0.0,-999.0,72,0.00,,,-99.99,,2013-05-29 11:42:00,
2013-05-29 04:51:00,46.0,37.0,29.74,North,0,0.0,-999.0,72,0.00,,,-99.99,,2013-05-29 11:51:00,
2013-05-29 05:21:00,46.0,37.0,29.73,North,0,0.0,-999.0,72,0.00,,,-99.99,,2013-05-29 12:21:00,
2013-05-29 05:32:00,46.0,37.0,29.73,North,0,0.0,-999.0,72,0.00,,,-99.99,,2013-05-29 12:32:00,
2013-05-29 05:42:00,46.0,37.0,29.73,North,0,0.0,-999.0,72,0.00,,,-99.99,,2013-05-29 12:42:00,
2013-05-29 05:51:00,46.0,37.0,29.73,North,0,0.0,-999.0,72,0.00,,,-99.99,,2013-05-29 12:51:00,
2013-05-29 06:21:00,46.0,38.0,29.73,North,0,0.0,-999.0,73,0.00,,,-99.99,,2013-05-29 13:21:00,
2013-05-29 06:31:00,46.0,38.0,29.73,North,0,0.0,-999.0,73,0.00,,,-99.99,,2013-05-29 13:31:00,
2013-05-29 07:21:00,52.0,35.0,29.74,North,0,0.0,-999.0,53,0.00,,,-99.99,,2013-05-29 14:21:00,
2013-05-29 07:32:00,52.0,35.0,29.74,North,0,0.0,-999.0,53,0.00,,,-99.99,,2013-05-29 14:32:00,
2013-05-29 07:41:00,52.0,35.0,29.74,North,0,0.0,-999.0,53,0.00,,,-99.99,,2013-05-29 14:41:00,
2013-05-29 07:52:00,52.0,35.0,29.74,North,0,0.0,-999.0,53,0.00,,,-99.99,,2013-05-29 14:52:00,
2013-05-29 08:21:00,60.0,33.0,29.75,North,0,0.0,-999.0,36,0.00,,,-99.99,,2013-05-29 15:21:00,
2013-05-29 08:32:00,60.0,33.0,29.75,North,0,0.0,-999.0,36,0.00,,,-99.99,,2013-05-29 15:32:00,
2013-05-29 08:42:00,60.0,33.0,29.75,North,0,0.0,-999.0,36,0.00,,,-99.99,,2013-05-29 15:42:00,
2013-05-29 08:53:00,60.0,33.0,29.75,North,0,0.0,-999.0,36,0.00,,,-99.99,,2013-05-29 15:53:00,
2013-05-29 09:22:00,65.0,29.0,29.76,North,0,0.0,-999.0,26,0.00,,,-99.99,,2013-05-29 16:22:00,
2013-05-29 09:32:00,65.0,29.0,29.76,North,0,0.0,-999.0,26,0.00,,,-99.99,,2013-05-29 16:32:00,
2013-05-29 09:42:00,65.0,29.0,29.76,North,0,0.0,-999.0,26,0.00,,,-99.99,,2013-05-29 16:42:00,
2013-05-29 09:52:00,65.0,29.0,29.76,North,0,0.0,-999.0,26,0.00,,,-99.99,,2013-05-29 16:52:00,
2013-05-29 10:22:00,68.0,32.0,29.77,WSW,250,2.0,-999.0,26,0.00,,,-99.99,,2013-05-29 17:22:00,
2013-05-29 10:32:00,68.0,32.0,29.77,WSW,250,2.0,-999.0,26,0.00,,,-99.99,,2013-05-29 17:32:00,
2013-05-29 10:42:00,68.0,32.0,29.77,WSW,250,2.0,-999.0,26,0.00,,,-99.99,,2013-05-29 17:42:00,
2013-05-29 10:52:00,68.0,32.0,29.77,WSW,250,2.0,-999.0,26,0.00,,,-99.99,,2013-05-29 17:52:00,
2013-05-29 11:22:00,69.0,35.0,29.77,ESE,120,2.0,-999.0,28,0.00,,,-99.99,,2013-05-29 18:22:00,
2013-05-29 11:32:00,69.0,35.0,29.77,ESE,120,2.0,-999.0,28,0.00,,,-99.99,,2013-05-29 18:32:00,
2013-05-29 11:42:00,69.0,35.0,29.77,ESE,120,2.0,-999.0,28,0.00,,,-99.99,,2013-05-29 18:42:00,
2013-05-29 11:51:00,69.0,35.0,29.77,ESE,120,2.0,-999.0,28,0.00,,,-99.99,,2013-05-29 18:51:00,
2013-05-29 12:21:00,75.0,41.0,29.76,SE,140,1.0,-999.0,30,0.00,,,-99.99,,2013-05-29 19:21:00,
2013-05-29 12:32:00,75.0,41.0,29.76,SE,140,1.0,-999.0,30,0.00,,,-99.99,,2013-05-29 19:32:00,
2013-05-29 12:44:00,75.0,41.0,29.76,SE,140,1.0,-999.0,30,0.00,,,-99.99,,2013-05-29 19:44:00,
2013-05-29 12:52:00,75.0,41.0,29.76,SE,140,1.0,-999.0,30,0.00,,,-99.99,,2013-05-29 19:52:00,
2013-05-29 13:22:00,77.0,45.0,29.75,North,0,0.0,-999.0,32,0.00,,,-99.99,,2013-05-29 20:22:00,
2013-05-29 13:32:00,77.0,45.0,29.75,North,0,0.0,-999.0,32,0.00,,,-99.99,,2013-05-29 20:32:00,
2013-05-29 13:42:00,77.0,45.0,29.75,North,0,0.0,-999.0,32,0.00,,,-99.99,,2013-05-29 20:42:00,
2013-05-29 13:52:00,77.0,45.0,29.75,North,0,0.0,-999.0,32,0.00,,,-99.99,,2013-05-29 20:52:00,
2013-05-29 14:22:00,76.0,42.0,29.73,West,270,2.0,-999.0,30,0.00,,,-99.99,,2013-05-29 21:22:00,
2013-05-29 14:33:00,76.0,42.0,29.73,West,270,2.0,-999.0,30,0.00,,,-99.99,,2013-05-29 21:33:00,
2013-05-29 14:43:00,76.0,42.0,29.73,West,270,2.0,-999.0,30,0.00,,,-99.99,,2013-05-29 21:43:00,
2013-05-29 14:53:00,76.0,42.0,29.73,West,270,2.0,-999.0,30,0.00,,,-99.99,,2013-05-29 21:53:00,
2013-05-29 15:23:00,78.0,31.0,29.71,North,0,0.0,-999.0,18,0.00,,,-99.99,,2013-05-29 22:23:00,
2013-05-29 15:33:00,78.0,31.0,29.71,North,0,0.0,-999.0,18,0.00,,,-99.99,,2013-05-29 22:33:00,
2013-05-29 15:42:00,78.0,31.0,29.71,North,0,0.0,-999.0,18,0.00,,,-99.99,,2013-05-29 22:42:00,
2013-05-29 15:53:00,78.0,31.0,29.71,North,0,0.0,-999.0,18,0.00,,,-99.99,,2013-05-29 22:53:00,
2013-05-29 16:21:00,77.0,22.0,29.71,SW,230,1.0,-999.0,13,0.00,,,-99.99,,2013-05-29 23:21:00,
2013-05-29 16:33:00,77.0,22.0,29.71,SW,230,1.0,-999.0,13,0.00,,,-99.99,,2013-05-29 23:33:00,
2013-05-29 17:21:00,70.0,48.0,29.70,SE,130,4.0,-999.0,46,0.00,,,-99.99,,2013-05-30 00:21:00,
2013-05-29 17:31:00,70.0,48.0,29.70,SE,130,4.0,-999.0,46,0.00,,,-99.99,,2013-05-30 00:31:00,
2013-05-29 17:41:00,70.0,48.0,29.70,SE,130,4.0,-999.0,46,0.00,,,-99.99,,2013-05-30 00:41:00,
2013-05-29 17:52:00,70.0,48.0,29.70,SE,130,4.0,-999.0,46,0.00,,,-99.99,,2013-05-30 00:52:00,
2013-05-29 18:21:00,67.0,53.0,29.68,South,170,1.0,-999.0,60,0.00,,,-99.99,,2013-05-30 01:21:00,
2013-05-29 18:31:00,67.0,53.0,29.68,South,170,1.0,-999.0,60,0.00,,,-99.99,,2013-05-30 01:31:00,
2013-05-29 18:41:00,67.0,53.0,29.68,South,170,1.0,-999.0,60,0.00,,,-99.99,,2013-05-30 01:41:00,
2013-05-29 18:52:00,67.0,53.0,29.68,South,170,1.0,-999.0,60,0.00,,,-99.99,,2013-05-30 01:52:00,
2013-05-29 19:21:00,63.0,50.0,29.66,SW,230,2.0,-999.0,63,0.00,,,-99.99,,2013-05-30 02:21:00,
2013-05-29 19:32:00,63.0,50.0,29.66,SW,230,2.0,-999.0,63,0.00,,,-99.99,,2013-05-30 02:32:00,
2013-05-29 19:42:00,63.0,50.0,29.66,SW,230,2.0,-999.0,63,0.00,,,-99.99,,2013-05-30 02:42:00,
2013-05-29 19:52:00,63.0,50.0,29.66,SW,230,2.0,-999.0,63,0.00,,,-99.99,,2013-05-30 02:52:00,
2013-05-29 20:21:00,61.0,49.0,29.68,ESE,120,1.0,-999.0,64,0.00,,,-99.99,,2013-05-30 03:21:00,
2013-05-29 20:33:00,61.0,49.0,29.68,ESE,120,1.0,-999.0,64,0.00,,,-99.99,,2013-05-30 03:33:00,
2013-05-29 20:43:00,61.0,49.0,29.68,ESE,120,1.0,-999.0,64,0.00,,,-99.99,,2013-05-30 03:43:00,
2013-05-29 20:53:00,61.0,49.0,29.68,ESE,120,1.0,-999.0,64,0.00,,,-99.99,,2013-05-30 03:53:00,
2013-05-29 21:23:00,60.0,47.0,29.68,North,0,0.0,-999.0,61,0.00,,,-99.99,,2013-05-30 04:23:00,
2013-05-29 21:32:00,60.0,47.0,29.68,North,0,0.0,-999.0,61,0.00,,,-99.99,,2013-05-30 04:32:00,
2013-05-29 21:42:00,60.0,47.0,29.68,North,0,0.0,-999.0,61,0.00,,,-99.99,,2013-05-30 04:42:00,
2013-05-29 21:53:00,60.0,47.0,29.68,North,0,0.0,-999.0,61,0.00,,,-99.99,,2013-05-30 04:53:00,
2013-05-29 22:22:00,60.0,46.0,29.70,North,0,0.0,-999.0,59,0.00,,,-99.99,,2013-05-30 05:22:00,
2013-05-29 22:32:00,60.0,46.0,29.70,North,0,0.0,-999.0,59,0.00,,,-99.99,,2013-05-30 05:32:00,
2013-05-29 22:42:00,60.0,46.0,29.70,North,0,0.0,-999.0,59,0.00,,,-99.99,,2013-05-30 05:42:00,
2013-05-29 22:52:00,60.0,46.0,29.70,North,0,0.0,-999.0,59,0.00,,,-99.99,,2013-05-30 05:52:00,
2013-05-29 23:21:00,57.0,46.0,29.71,North,0,0.0,-999.0,67,0.00,,,-99.99,,2013-05-30 06:21:00,
2013-05-29 23:32:00,57.0,46.0,29.71,North,0,0.0,-999.0,67,0.00,,,-99.99,,2013-05-30 06:32:00,
2013-05-29 23:42:00,57.0,46.0,29.71,North,0,0.0,-999.0,67,0.00,,,-99.99,,2013-05-30 06:42:00,
2013-05-29 23:52:00,57.0,46.0,29.71,North,0,0.0,-999.0,67,0.00,,,-99.99,,2013-05-30 06:52:00,